Flag for Germany Weather past 2 weeks in Meissen, Saxony, Germany

Now
55 °F

Clear.


Feels Like: 54 °F
Forecast: 49 / 61 °F
Wind: 6 mph from West

Location: Dresden-Klotzsche

Current Time: May 7, 2015 at 12:44:36 AM

Latest Report: May 7, 2015 at 12:20 AM


Visibility: 10 mi

Pressure: 29.98 "Hg

Humidity: 59%

Dew point: 41 °F

Location of MeissenLocation

Historic Weather in Meissen — Graph

°F

Meissen temperature yesterday

Maximum temperature yesterday: 66 °F (at 1:50 PM)
Minimum temperature yesterday: 55 °F (at 4:50 AM)
Average temperature yesterday: 60 °F

Past Weeks' High & Low Weather Summary

 TemperatureHumidityPressure
High72 °F (Apr 27, 1:20 PM)100% (Apr 23, 3:50 AM)30.30 "Hg (Apr 23, 3:50 AM)
Low34 °F (Apr 23, 5:20 AM)26% (Apr 25, 12:50 PM)29.53 "Hg (Apr 27, 3:50 PM)
Average54 °F68%29.89 "Hg
* Reported Apr 21 11:20 PM — May 6 11:20 PM, Meissen, Weather by CustomWeather, © 2015

Note: Actual official high and low records may vary slightly from our data, if they occured in-between our weather recording intervals... More about our weather records

Advertising

Meissen weather history for previous 24 hours

 ConditionsComfort  
Time TempWeatherWind HumidityBarometerVisibility
11:20 PM
Wed, May 6
57 °FPassing clouds.7 mph51%29.95 "HgN/A
10:50 PM57 °FClear.9 mph51%29.95 "Hg10 mi
10:20 PM57 °FClear.9 mph51%29.95 "Hg10 mi
9:50 PM57 °FClear.8 mph51%29.95 "Hg10 mi
9:20 PM57 °FSunny.7 mph51%29.95 "Hg10 mi
8:50 PM59 °FSunny.7 mph48%29.92 "Hg10 mi
8:20 PM61 °FSunny.6 mph48%29.92 "Hg10 mi
7:50 PM63 °FPassing clouds.7 mph45%29.92 "HgN/A
7:20 PM64 °FPassing clouds.7 mph40%29.89 "HgN/A
6:50 PM66 °FPassing clouds.7 mph40%29.89 "HgN/A
6:20 PM66 °FPassing clouds.9 mph40%29.89 "HgN/A
5:50 PM66 °FPassing clouds.13 mph37%29.89 "HgN/A
5:20 PM64 °FPassing clouds.12 mph43%29.89 "HgN/A
4:50 PM66 °FPassing clouds.10 mph49%29.89 "HgN/A
4:20 PM66 °FPassing clouds.12 mph52%29.89 "HgN/A
3:50 PM66 °FPassing clouds.13 mph49%29.92 "HgN/A
3:20 PM64 °FPartly sunny.12 mph52%29.92 "HgN/A
2:50 PM64 °FBroken clouds.8 mph52%29.92 "HgN/A
2:20 PM64 °FPartly sunny.8 mph56%29.92 "HgN/A
1:50 PM66 °FBroken clouds.6 mph60%29.92 "HgN/A
1:20 PM63 °FBroken clouds.3 mph64%29.92 "HgN/A
12:50 PM63 °FBroken clouds.5 mph64%29.92 "HgN/A
12:20 PM63 °FPartly sunny.5 mph68%29.92 "HgN/A
11:50 AM61 °FPartly sunny.6 mph72%29.95 "HgN/A
11:20 AM61 °FPartly sunny.7 mph68%29.95 "HgN/A
10:50 AM59 °FPartly sunny.5 mph72%29.92 "HgN/A
10:20 AM59 °FBroken clouds.5 mph72%29.92 "HgN/A
9:50 AM59 °FBroken clouds.5 mph72%29.92 "HgN/A
9:20 AM59 °FBroken clouds.5 mph72%29.92 "HgN/A
8:50 AM59 °FBroken clouds.3 mph68%29.92 "HgN/A
8:20 AM57 °FBroken clouds.3 mph72%29.92 "HgN/A
7:50 AM57 °FBroken clouds.2 mph72%29.92 "HgN/A
7:20 AM57 °FBroken clouds.1 mph77%29.92 "HgN/A
6:50 AM55 °FBroken clouds.2 mph82%29.92 "HgN/A
6:20 AM55 °FPassing clouds.1 mph82%29.92 "HgN/A
5:50 AM55 °FClear.2 mph82%29.92 "Hg10 mi
5:20 AM55 °FClear.1 mph82%29.92 "Hg10 mi
4:50 AM55 °FClear.2 mph82%29.92 "Hg10 mi
4:20 AM57 °FPassing clouds.3 mph77%29.89 "HgN/A
3:50 AM57 °FPassing clouds.5 mph72%29.92 "HgN/A
3:20 AM57 °FPassing clouds.3 mph72%29.92 "HgN/A
2:50 AM57 °FLight rain. Clear.6 mph72%29.89 "HgN/A
2:20 AM59 °FPassing clouds.5 mph68%29.89 "HgN/A
1:50 AM59 °FPassing clouds.5 mph68%29.89 "HgN/A
1:20 AM59 °FPassing clouds.5 mph72%29.89 "HgN/A
12:50 AM59 °FLight rain. Partly cloudy.9 mph68%29.86 "HgN/A
12:20 AM61 °FPartly cloudy.12 mph63%29.86 "HgN/A
Weather by CustomWeather, © 2015

See weather overviewHow to use our weather pages